“Isn't it strange that the most gentle of hearts belong to all the souls on fire” ― Mickelle Schaper

Roanoke Fiendfyre

3 Star Prospect ; KTK-II new forest, ori rekisteri VH18-027-0063 s. 18.01.2018 GB   15 vuotta rautias (Aa ee), 134cm kasv. Roanoke Stud om. Rushock Bog (Serena, VRL-09334) kilpakäytössä siitoskäytössä
Roanoke Farrow NF mrn 139cm - ii. Roanoake Graffiti NF rn 137cm iii. Kajon's Pavarotti
iie. Fenwick Moor Harper
ie. Poniniemen Moondust NF rn 140cm, kadonnut VRL iei. Bounded Myth
iee. Marydenes Moonbeam
Roscoff Whirlwind NF vkk 133cm KTK-II ei. Untuvapilven Winter Hymn NF rnvkk 133cm, NFL-I KRJ-II ERJ-I eii. Mundhill King Arthur
eie. Marydenes Hilary
ee. Riot Hazybug NF rnpäiskm 135cm eei. Blackbury Baron
eee. Seakiln Starbug

Parhaat puolet :: rohkeus, kuuliaisuus
Lorem ipsum dolor sit amet, consectetur adipiscing elit, sed do eiusmod tempor incididunt ut labore et dolore magna aliqua. Ut enim ad minim veniam, quis nostrud exercitation ullamco laboris nisi ut aliquip ex ea commodo consequat.

Yleispainotus ; helppo A & 80 cm
Lorem ipsum dolor sit amet, consectetur adipiscing elit, sed do eiusmod tempor incididunt ut labore et dolore magna aliqua. Ut enim ad minim veniam, quis nostrud exercitation ullamco laboris nisi ut aliquip ex ea commodo consequat.

tamma Tamman Niminen
omistaja omistaja
s. 00.00.0000 t. Varsan Niminen
ei meriittejä

Kilpailut

Kilpailee koulu- ja esteratsastuksessa.
Ajankohtaisen tilanteen näet VRL-profiilista.
Kouluratsastus ; tasolla 3/4
Esteratsastus ; sijoituksia 40/40
02.07.2018 ERJ, 40 cm ; 1/08
03.07.2018 ERJ, 40 cm ; 1/08
17.01.2019 ERJ, 40 cm ; 1/18
19.01.2019 ERJ, 40 cm ; 4/19
20.01.2019 ERJ, 40 cm ; 3/19
22.01.2019 ERJ, 40 cm ; 2/19
25.01.2019 ERJ, 40 cm ; 1/18
03.02.2019 ERJ, 40 cm ; 3/35
10.02.2019 ERJ, 40 cm ; 2/35
15.09.2019 ERJ, 70 cm ; 4/58
01.11.2019 ERJ, 60 cm ; 6/44
03.11.2019 ERJ, 60 cm ; 4/44
06.11.2019 ERJ, 60 cm ; 2/44
08.11.2019 ERJ, 60 cm ; 4/44
10.11.2019 ERJ, 60 cm ; 5/44
10.11.2019 ERJ, 60 cm ; 6/44
01.11.2019 ERJ, 70 cm ; 4/30
03.11.2019 ERJ, 70 cm ; 5/30
05.11.2019 ERJ, 70 cm ; 1/30
07.11.2019 ERJ, 70 cm ; 3/30
08.11.2019 ERJ, 70 cm ; 4/30
12.11.2019 ERJ, 70 cm ; 5/30
15.11.2019 ERJ, 70 cm ; 2/30
15.11.2019 ERJ, 70 cm ; 5/30
17.11.2019 ERJ, 70 cm ; 2/30
18.11.2019 ERJ, 70 cm ; 5/30
19.11.2019 ERJ, 70 cm ; 4/30
20.11.2019 ERJ, 70 cm ; 2/30
21.11.2019 ERJ, 70 cm ; 5/30
23.11.2019 ERJ, 70 cm ; 2/30
27.11.2019 ERJ, 70 cm ; 3/30
28.11.2019 ERJ, 70 cm ; 4/30
29.11.2019 ERJ, 70 cm ; 5/30
11.11.2019 ERJ, 70 cm ; 5/30
16.11.2019 ERJ, 70 cm ; 2/30
17.11.2019 ERJ, 70 cm ; 1/30
20.11.2019 ERJ, 70 cm ; 5/30
24.11.2019 ERJ, 70 cm ; 1/30
30.11.2019 ERJ, 70 cm ; 3/30
13.11.2019 ERJ, 80 cm ; 1/30

Muu menestys

NJ - näyttelyjaos
20.06.2019 kutsu ; irtoSERT
VSN - virtuaaliset show näyttelyt
-
Arvokilpailut

Päiväkirjamerkintä

kirjoittanut

tämä on virtuaalihevonen   ::   kuvat © pixabay, kuvaaja